Weather History for Eagle Creek, IN

Change the Weather History Date:

Tuesday, July 23, 2013

  Actual Average Record
Temperature  
Mean Temperature 76 °F 75 °F  
Max Temperature 87 °F 84 °F 99 °F (2012)
Min Temperature 65 °F 66 °F 55 °F (2000)
Degree Days  
Heating Degree Days 0 0  
Month to date heating degree days 0 0  
Since 1 June heating degree days 14 14  
Since 1 July heating degree days 0 0  
Cooling Degree Days 11 10  
Month to date cooling degree days 232 240  
Year to date cooling degree days 547 558  
Since 1 June cooling degree days 436 474  
Growing Degree Days 28 (Base 50)    
Moisture  
Dew Point 68 °F    
Average Humidity 74    
Maximum Humidity 97    
Minimum Humidity 51    
Precipitation  
Precipitation 0.00 in 0.13 in 0.75 in (1999)
Month to date precipitation 1.56 3.46  
Year to date precipitation 25.45 24.66  
Sea Level Pressure  
Sea Level Pressure 29.80 in    
Wind  
Wind Speed 9 mph (WNW)    
Max Wind Speed 18 mph    
Max Gust Speed 25 mph    
Visibility 10 miles    
Events      
T = Trace of Precipitation, MM = Missing Value Source: NWS Daily Summary

Daily Weather History Graph

Daily Weather History Graph

Search for Another Location

Airport:

Trip Planner

Search our weather history database for the weather conditions in past years. The results will help you decide how hot, cold, wet, or windy it might be!

Date:

Astronomy

Jul. 23, 2013 Rise Set
Actual Time 6:36 AM EDT 9:06 PM EDT
Civil Twilight 6:05 AM EDT 9:37 PM EDT
Nautical Twilight 5:26 AM EDT 10:16 PM EDT
Astronomical Twilight 4:43 AM EDT 10:58 PM EDT
Moon 9:34 PM EDT 7:43 AM EDT
Length of Visible Light 15h 32m
Length of Day
14h 30m
Full, 99% of the Moon is Illuminated
Jul 23
Full
Jul 29
Last Quarter
Aug 6
New
Aug 14
First Quarter
Aug 20
Full

Hourly Weather History & Observations

Time (EDT) Temp. Heat Index Dew Point Humidity Pressure Visibility Wind Dir Wind Speed Gust Speed Precip Events Conditions
12:53 AM 71.1 °F - 69.1 °F 93% 29.83 in 10.0 mi Calm Calm - N/A   Clear
1:53 AM 70.0 °F - 68.0 °F 93% 29.83 in 10.0 mi Calm Calm - N/A   Clear
2:53 AM 69.1 °F - 68.0 °F 96% 29.82 in 9.0 mi Calm Calm - N/A   Clear
3:53 AM 69.1 °F - 68.0 °F 96% 29.80 in 10.0 mi SSW 3.5 mph - N/A   Clear
4:53 AM 69.1 °F - 68.0 °F 96% 29.79 in 10.0 mi SW 3.5 mph - N/A   Partly Cloudy
5:53 AM 69.1 °F - 68.0 °F 96% 29.78 in 10.0 mi SW 4.6 mph - N/A   Clear
6:53 AM 71.1 °F - 68.0 °F 90% 29.78 in 10.0 mi SW 5.8 mph - N/A   Clear
7:53 AM 72.0 °F - 70.0 °F 93% 29.77 in 10.0 mi SW 3.5 mph - N/A   Clear
8:53 AM 75.0 °F - 71.1 °F 87% 29.78 in 10.0 mi WSW 6.9 mph - N/A   Clear
9:53 AM 79.0 °F - 72.0 °F 79% 29.79 in 10.0 mi Variable 6.9 mph - N/A   Clear
10:53 AM 82.0 °F 87.9 °F 73.9 °F 76% 29.79 in 10.0 mi West 8.1 mph - N/A   Mostly Cloudy
11:53 AM 82.9 °F 88.0 °F 72.0 °F 69% 29.79 in 10.0 mi West 12.7 mph 17.3 mph N/A   Mostly Cloudy
12:53 PM 84.0 °F 89.0 °F 71.1 °F 65% 29.80 in 10.0 mi WNW 9.2 mph 18.4 mph N/A   Partly Cloudy
1:53 PM 86.0 °F 90.1 °F 69.1 °F 57% 29.77 in 10.0 mi WNW 16.1 mph 19.6 mph N/A   Clear
2:53 PM 87.1 °F 90.6 °F 68.0 °F 53% 29.75 in 10.0 mi NW 15.0 mph 23.0 mph N/A   Clear
3:53 PM 86.0 °F 88.8 °F 66.9 °F 53% 29.76 in 10.0 mi NW 9.2 mph 17.3 mph N/A   Partly Cloudy
4:53 PM 84.9 °F 87.6 °F 66.9 °F 55% 29.76 in 10.0 mi NW 16.1 mph 20.7 mph N/A   Partly Cloudy
5:53 PM 82.0 °F 85.5 °F 69.1 °F 65% 29.76 in 10.0 mi NW 11.5 mph 20.7 mph N/A   Mostly Cloudy
6:53 PM 82.0 °F 84.5 °F 66.9 °F 60% 29.76 in 10.0 mi NNW 11.5 mph - N/A   Partly Cloudy
7:53 PM 77.0 °F - 66.9 °F 71% 29.78 in 10.0 mi North 12.7 mph 19.6 mph N/A   Partly Cloudy
8:53 PM 73.0 °F - 63.0 °F 71% 29.80 in 10.0 mi North 15.0 mph 21.9 mph N/A   Scattered Clouds
9:53 PM 70.0 °F - 60.1 °F 71% 29.83 in 10.0 mi North 11.5 mph - N/A   Scattered Clouds
10:53 PM 68.0 °F - 59.0 °F 73% 29.88 in 10.0 mi North 10.4 mph - N/A   Clear
11:53 PM 66.0 °F - 57.9 °F 75% 29.89 in 10.0 mi North 10.4 mph - N/A   Mostly Cloudy